Theta_e
334 334 333 333 332 331 331 330 331 331 331 330 330 330 332 333 334 334 332 332 332 332 332 333 333 334 335 336 337 338 339 338 339 338 337 337 337 336 337 341 345 346 347 347 347 347 349 351 352 351 350 349 349 347 346 345 345 345 344 342 340 338 338 339 341 341 341 340 339 337 337 337 338 340
334 334 333 331 332 331 329 329 329 328 325 325 326 327 328 330 331 333 332 331 330 331 331 332 333 333 333 334 335 336 336 337 339 340 339 339 338 337 338 340 344 345 346 345 345 346 349 351 351 351 351 350 349 349 348 346 346 345 344 342 340 338 337 338 339 340 339 338 337 337 337 338 338 339
335 334 332 331 331 330 329 328 327 323 321 322 322 323 324 325 327 329 330 330 329 329 329 329 329 330 331 332 333 335 335 337 338 340 341 340 340 340 340 341 343 344 344 345 345 346 347 349 349 349 350 350 349 349 348 348 347 346 345 344 343 340 338 337 338 338 336 336 336 336 338 338 339 339
336 334 332 330 330 330 329 328 324 320 320 320 320 321 322 323 324 326 328 328 327 326 326 326 326 327 329 331 333 334 335 335 336 337 338 339 341 343 343 343 343 344 345 346 346 345 346 347 347 348 349 349 349 349 349 349 347 347 346 345 344 343 341 340 339 338 337 335 336 337 338 339 340 339
336 334 332 330 330 329 330 328 324 319 319 320 320 321 322 322 323 325 327 327 326 325 324 324 324 325 327 329 332 334 335 336 336 336 336 337 340 344 345 345 344 344 344 346 347 346 345 346 346 347 347 348 348 348 349 349 349 348 346 345 345 344 343 342 341 340 339 338 337 338 339 340 341 340
335 333 331 330 329 329 329 328 323 319 319 320 321 321 321 323 323 324 325 326 326 325 324 323 324 324 326 328 330 333 335 336 336 337 337 337 338 342 345 346 344 343 343 344 345 346 345 345 346 346 346 345 346 348 349 349 348 348 346 344 344 343 343 344 343 343 343 342 341 339 339 340 341 340
334 333 331 330 329 329 329 328 324 319 320 321 322 321 321 322 323 323 324 325 325 325 324 323 323 323 325 326 328 331 334 335 336 336 337 337 337 340 344 347 347 344 342 342 343 344 344 344 344 345 345 345 345 347 348 347 347 346 345 343 342 343 343 344 344 344 344 344 342 341 340 340 340 340
333 332 331 330 329 329 328 328 325 321 321 322 322 322 322 322 323 323 323 324 324 324 324 323 323 323 324 325 327 330 332 334 336 337 337 338 338 339 340 344 346 343 341 340 342 342 342 342 343 344 345 344 345 346 347 347 346 345 344 344 344 344 345 345 344 345 345 345 344 341 340 339 339 340
333 332 331 330 329 329 328 328 326 322 321 322 322 322 322 323 323 323 323 323 323 323 323 323 323 323 324 325 326 329 332 334 336 337 338 338 338 338 338 340 342 342 341 341 343 342 341 341 341 343 345 345 345 346 347 347 347 346 345 346 345 344 345 346 346 345 345 345 343 341 339 338 338 340
333 332 331 330 329 329 328 328 327 323 319 320 321 321 322 324 324 324 324 324 323 323 323 322 323 323 324 325 326 328 331 334 336 338 339 339 339 339 340 341 342 343 344 344 342 341 340 341 342 344 345 346 346 345 347 347 348 348 347 347 345 345 345 345 345 345 345 344 342 339 337 337 339 341
332 332 331 330 329 328 328 328 328 325 321 319 320 321 322 324 325 325 325 324 323 322 322 322 323 323 324 325 326 327 329 332 335 336 337 339 340 340 342 344 344 344 345 344 342 341 340 341 343 345 346 347 346 346 346 347 348 348 348 347 346 346 346 344 344 344 344 343 340 338 337 339 341 343
330 331 331 330 329 329 328 328 328 327 325 322 322 323 323 324 326 326 326 324 323 322 322 322 322 323 324 325 325 326 328 331 334 336 336 338 339 340 342 343 345 345 345 344 343 342 342 343 345 347 345 345 346 346 346 347 348 349 348 347 347 347 346 343 342 342 341 340 339 339 340 342 342 343
328 329 329 329 329 328 329 328 328 328 327 327 326 325 325 325 326 327 326 324 322 321 322 322 322 323 324 325 325 326 327 329 332 334 335 337 338 340 341 343 344 345 345 344 344 343 343 345 346 345 343 342 344 347 348 349 349 349 348 347 348 347 345 343 342 342 341 341 341 342 342 342 342 344
327 328 329 328 328 328 328 328 328 328 328 328 328 327 327 327 327 327 325 323 321 321 322 322 322 323 323 324 324 325 326 327 328 331 333 336 337 338 340 341 343 345 346 345 345 344 344 345 346 344 340 339 343 348 350 350 350 350 349 348 348 348 345 343 343 343 342 342 342 341 342 342 343 344
329 329 329 328 327 328 329 328 328 328 328 328 328 328 328 328 328 327 324 322 321 321 321 321 322 323 323 324 324 324 325 326 326 328 331 334 336 338 339 341 342 344 346 346 346 345 345 345 345 344 342 339 342 348 350 349 349 348 348 348 346 345 344 343 343 342 342 342 342 342 343 344 343 342
330 330 329 328 328 328 328 328 328 327 327 327 328 328 329 328 328 326 323 321 321 320 321 321 322 322 323 323 323 324 325 325 326 327 329 332 336 337 338 340 341 343 345 347 347 347 346 346 347 348 346 343 342 344 346 347 347 346 345 346 345 344 344 343 343 343 343 343 343 344 343 342 342 341
330 331 329 328 327 327 327 326 327 327 326 327 327 328 329 329 329 326 322 320 320 320 321 321 322 322 322 323 323 324 324 325 326 327 328 331 334 336 337 338 340 341 343 346 348 347 347 348 349 350 349 348 347 345 344 345 346 346 346 345 345 344 343 343 343 343 344 343 344 343 343 342 342 342
331 332 330 329 327 326 325 326 326 326 326 327 327 328 329 329 327 324 321 319 319 320 320 321 322 322 322 322 323 323 324 324 325 326 327 329 331 335 336 338 339 340 341 344 346 347 347 347 348 349 349 349 349 348 346 345 345 346 346 346 345 344 343 343 343 343 343 343 343 342 342 342 343 343
330 332 330 329 328 326 324 325 325 326 326 327 328 329 329 329 327 323 320 319 319 321 321 321 322 321 321 322 323 323 324 324 324 325 325 326 328 331 335 338 339 340 341 343 346 346 346 348 348 349 348 349 349 349 349 347 346 346 346 346 345 344 343 343 343 342 342 342 342 341 342 343 343 344
331 332 331 330 328 325 324 324 325 326 327 328 329 329 328 327 324 322 320 319 321 322 322 321 320 320 321 322 322 323 323 323 324 324 325 326 327 330 334 336 339 340 341 343 345 344 344 347 349 349 348 349 349 349 349 348 348 347 347 346 345 344 345 345 344 344 343 342 342 342 343 345 344 344
330 331 331 331 328 326 325 325 325 327 328 328 327 326 325 323 322 322 321 322 322 322 321 319 319 320 321 322 323 323 324 325 324 324 324 326 329 332 335 337 338 340 341 343 344 343 343 345 348 348 349 349 349 349 349 349 349 349 349 348 347 347 347 346 345 344 343 343 343 344 345 345 345 345
330 331 331 330 328 327 325 325 326 328 327 325 323 322 322 322 322 322 322 322 322 321 319 318 319 320 321 322 323 324 325 327 327 324 323 325 326 330 334 337 338 339 340 341 343 342 342 344 347 348 348 349 349 350 349 349 349 350 350 350 350 349 348 347 346 346 346 344 344 344 346 346 346 346
331 330 329 329 328 327 326 326 328 327 323 322 322 322 322 322 322 321 321 321 321 320 319 318 319 321 322 322 323 324 326 328 329 327 325 324 324 327 332 337 338 339 339 340 341 342 342 343 345 347 347 347 348 348 349 349 349 349 350 351 351 351 351 350 349 349 348 347 346 346 348 348 348 347
327 326 327 328 327 327 327 326 326 324 321 323 323 321 320 320 319 320 320 320 320 319 319 318 319 320 322 322 323 324 325 328 329 328 326 325 324 325 328 335 339 339 339 340 340 342 342 342 344 346 347 346 346 346 348 349 349 349 350 351 352 352 353 353 353 352 352 350 350 350 350 349 348 347
324 324 325 327 328 327 325 324 323 322 323 324 322 319 318 318 318 319 319 319 319 319 318 318 319 320 321 322 323 323 324 326 328 328 327 325 324 324 327 334 339 340 339 340 340 342 343 343 344 345 345 344 344 346 348 349 349 349 350 351 351 352 352 353 354 354 353 352 351 351 350 349 347 344
324 324 325 326 327 326 323 322 323 323 324 323 320 317 318 318 318 319 319 319 319 319 318 318 319 320 321 322 323 323 323 324 327 328 327 325 324 324 326 332 338 340 339 339 340 342 344 344 344 344 345 344 344 346 348 349 350 350 350 351 351 351 352 352 353 352 352 351 351 351 349 348 345 343
325 325 325 326 326 324 323 324 326 326 325 322 318 317 318 318 318 319 319 319 319 318 318 318 319 320 321 321 322 323 322 323 326 328 328 326 325 324 324 329 336 339 339 339 340 342 344 345 346 345 344 343 343 344 346 348 349 349 350 351 351 351 351 350 350 350 350 350 350 349 347 345 344 344
324 324 324 324 324 324 325 326 326 326 323 320 317 316 316 316 318 318 317 317 317 317 318 318 318 319 320 321 322 323 322 322 325 329 329 326 325 325 325 329 335 339 339 339 341 342 343 343 344 345 344 342 340 340 342 343 346 348 348 348 348 348 349 348 348 348 348 349 349 347 345 343 343 344
322 321 322 323 324 325 325 324 322 322 320 318 316 316 315 315 316 316 315 315 316 316 317 318 318 319 319 320 321 322 322 322 324 328 330 329 327 326 327 331 336 338 339 339 340 341 341 342 342 343 344 342 340 340 340 341 343 346 346 346 345 346 346 347 346 346 347 347 347 346 345 343 342 342
321 322 323 324 324 323 321 320 319 318 317 316 315 315 314 314 313 313 313 314 314 316 317 317 318 318 318 319 320 322 323 322 321 324 328 332 332 330 331 334 337 337 338 338 339 339 340 342 343 343 343 341 340 341 341 340 342 344 345 345 345 344 345 346 346 346 346 346 346 345 344 342 342 341
322 322 323 322 320 319 318 317 316 316 315 315 314 313 313 313 312 311 312 312 313 314 316 316 317 318 318 318 319 321 323 323 321 321 324 328 332 334 335 336 336 337 337 337 338 339 340 341 342 342 342 341 341 342 341 341 341 342 344 345 345 344 344 345 345 344 344 344 344 343 342 341 340 340
321 321 320 319 318 317 316 315 314 314 313 313 313 312 312 312 311 310 310 311 312 313 314 315 316 317 317 318 318 320 322 323 322 322 321 322 326 330 334 336 336 336 337 337 337 338 339 340 341 341 340 342 342 341 340 340 340 341 342 345 345 345 345 345 344 343 342 342 341 340 340 340 340 339
319 318 317 316 316 316 314 313 313 313 312 312 311 310 311 310 309 308 309 309 310 312 313 314 315 316 316 316 317 319 320 322 323 323 322 321 321 323 326 327 328 331 335 338 339 341 341 341 341 342 341 342 342 342 341 341 340 340 341 344 344 344 345 345 344 343 342 341 340 339 339 339 339 339
317 316 315 314 313 314 312 312 312 311 310 310 309 309 309 308 307 307 307 308 309 310 311 312 313 314 315 316 316 318 319 320 322 323 323 322 321 321 322 322 321 323 327 330 334 338 341 341 341 341 342 341 340 340 341 341 341 341 342 343 343 344 345 345 344 344 343 341 340 339 338 338 339 339
315 314 313 311 311 311 311 310 310 309 308 308 307 307 307 307 306 306 306 307 308 309 310 310 311 313 314 314 315 316 318 319 320 322 323 322 321 320 321 321 321 321 322 323 326 331 337 340 340 339 338 338 338 337 337 338 340 341 341 343 343 344 344 344 344 344 343 342 340 340 339 339 339 339
312 311 310 309 309 309 308 308 307 307 306 306 306 305 306 306 305 305 305 306 307 307 308 309 310 311 312 313 314 315 317 318 319 320 322 323 322 320 319 320 321 321 321 322 323 326 330 336 338 338 338 338 339 337 334 332 333 336 337 340 343 344 343 343 344 344 343 342 341 340 340 339 339 338
309 308 307 306 306 306 306 306 306 305 304 304 304 304 304 304 304 304 304 304 305 306 307 307 308 309 311 312 313 314 315 316 318 319 320 321 322 322 320 319 320 320 320 321 322 323 325 328 331 334 337 340 341 339 333 328 328 331 333 336 341 343 343 343 343 343 342 342 341 340 340 339 338 338
306 306 305 305 305 305 304 304 304 304 304 303 303 303 303 302 303 302 302 303 304 305 305 306 307 308 309 310 311 313 314 315 316 317 318 319 321 322 322 321 320 320 320 320 320 322 323 324 325 327 331 336 338 336 330 325 322 324 328 333 338 341 342 343 342 341 341 341 341 340 340 339 339 339
306 306 305 305 305 305 305 305 304 304 304 303 302 302 301 301 301 301 301 302 303 303 304 305 305 306 308 309 309 311 313 314 314 315 317 318 319 320 321 323 323 321 320 320 320 320 322 323 323 323 325 328 329 327 324 322 319 319 324 331 336 338 339 341 341 340 339 340 341 340 340 339 339 338
306 305 305 305 305 305 305 305 304 303 303 303 302 301 300 300 300 301 300 301 302 302 303 304 304 305 306 307 308 309 311 312 313 313 314 316 317 317 318 320 323 323 322 321 320 320 321 322 323 323 324 325 325 323 322 322 320 319 320 324 329 334 338 339 339 339 339 340 340 339 338 338 339 338
306 305 304 303 303 303 303 303 302 302 301 301 301 300 299 299 299 300 300 300 301 302 302 303 304 304 305 306 307 308 310 311 312 312 312 313 315 315 315 316 319 322 323 324 322 321 320 320 320 322 323 324 324 324 323 323 322 321 319 319 321 327 332 334 334 335 336 337 338 338 338 337 337 337
305 304 303 302 302 302 302 301 301 301 300 299 299 299 298 297 298 299 299 299 300 301 302 303 303 303 304 305 306 307 309 310 311 311 311 311 312 312 312 313 315 317 320 322 324 323 321 319 319 320 321 323 323 323 324 324 323 323 321 320 319 320 322 325 327 328 329 331 332 332 334 335 336 336
304 304 303 302 302 301 301 301 300 300 299 297 297 298 297 295 295 297 298 299 299 300 301 302 303 303 304 304 304 305 307 309 310 310 309 310 311 311 311 311 312 314 316 319 322 323 322 321 321 320 319 320 322 323 324 324 323 323 322 321 319 319 319 319 321 322 323 324 325 325 327 331 335 336
304 304 303 303 302 300 300 300 299 298 297 295 295 296 295 293 292 294 297 298 299 300 300 301 302 303 303 303 303 304 305 307 308 309 308 308 309 310 310 309 310 312 314 316 319 322 323 323 323 322 321 320 320 321 323 324 322 322 322 321 320 319 319 319 319 319 320 321 321 322 323 326 331 334
304 303 303 302 301 300 300 299 298 297 296 293 291 292 292 289 290 293 297 298 298 299 300 300 301 302 302 302 302 303 304 305 306 307 307 307 307 308 309 309 309 310 312 314 316 320 322 323 323 324 324 322 320 320 321 322 322 321 320 320 320 320 319 319 319 319 319 319 319 320 320 321 324 329
Wind_Speed
7 7 8 8 10 11 11 12 12 12 13 13 14 15 13 11 8 7 9 8 11 20 22 21 24 24 23 26 28 29 31 32 32 31 31 31 32 32 32 33 34 36 38 39 37 36 36 41 46 45 44 42 41 41 42 42 43 43 43 42 42 41 41 41 41 40 39 38 37 36 35 35 34 33
8 8 8 8 9 10 10 11 12 12 13 14 15 14 14 13 10 8 10 9 12 20 23 23 25 27 27 28 30 31 33 33 33 32 32 31 31 32 31 31 32 34 37 38 36 37 38 41 43 44 44 44 42 42 42 42 42 42 42 42 42 42 41 41 41 41 40 39 38 38 37 36 34 33
9 8 8 8 8 9 9 9 10 11 12 13 15 15 14 14 14 13 11 9 12 19 23 26 28 30 31 32 32 33 34 34 32 31 31 32 33 33 32 31 31 31 34 37 38 40 42 43 43 43 44 44 43 43 43 43 42 42 42 42 42 42 42 41 41 41 40 39 39 39 38 37 35 34
9 9 9 9 9 8 7 8 9 10 12 12 13 15 15 14 14 15 13 10 14 21 24 28 31 31 31 32 33 34 36 36 35 33 33 34 34 34 34 32 31 31 32 36 40 42 43 43 42 42 43 44 44 43 44 44 43 42 42 42 42 42 42 42 42 41 40 40 39 39 38 37 36 35
10 10 9 10 10 9 7 8 9 10 10 11 13 14 14 15 14 15 15 12 14 21 25 28 32 31 30 31 31 33 35 35 35 35 35 35 34 34 35 34 33 32 32 35 40 42 42 41 41 41 41 43 44 44 43 43 44 43 42 42 42 42 42 42 42 42 42 41 40 40 39 38 37 36
10 10 10 11 11 9 8 9 9 10 10 11 13 14 13 15 15 15 16 16 15 20 25 29 33 32 29 30 31 31 33 35 34 34 35 36 35 34 35 36 35 34 34 36 39 41 42 41 41 40 41 41 43 44 44 43 43 43 43 42 42 42 42 43 43 43 43 43 42 41 40 39 37 37
11 11 11 12 12 10 10 11 11 10 10 11 13 14 13 14 16 16 17 18 18 20 25 27 31 33 31 31 32 31 32 35 35 35 36 36 36 35 35 36 37 37 36 38 40 41 41 41 41 41 41 41 42 44 44 43 42 42 42 41 41 41 42 43 43 44 44 44 43 41 40 38 37 37
12 12 13 13 13 12 13 14 13 12 12 13 13 14 15 15 17 19 19 20 21 22 25 26 30 33 32 32 34 32 31 34 34 34 35 36 36 36 35 36 38 39 39 39 40 40 39 40 41 41 41 41 41 43 44 43 42 41 41 41 40 40 41 42 43 44 44 44 43 41 39 38 38 37
14 14 15 15 14 14 15 15 15 13 13 14 15 16 17 17 19 20 21 22 23 23 25 27 29 33 33 32 33 32 30 32 33 32 33 35 35 35 36 37 39 40 40 40 40 38 37 38 40 41 41 42 42 43 43 43 43 41 40 40 40 40 40 40 42 43 43 43 42 41 39 38 38 37
15 15 16 17 17 16 17 17 17 15 14 15 17 17 18 19 20 22 22 23 24 25 27 29 28 31 32 30 31 32 29 30 31 29 29 32 33 33 34 35 37 39 40 41 40 38 37 38 39 40 40 41 43 45 44 44 43 41 40 39 39 39 39 40 41 42 42 42 41 40 39 38 38 37
15 16 18 19 19 18 18 19 19 18 17 17 18 19 20 21 22 23 23 24 25 26 27 28 27 27 30 29 29 31 31 30 31 28 26 27 29 30 32 33 35 37 38 39 38 38 38 37 37 37 38 38 40 43 44 44 42 40 39 39 39 38 38 38 39 39 39 39 39 38 38 37 37 36
16 17 18 19 20 20 20 20 21 22 21 20 21 22 22 22 22 23 23 24 25 26 26 27 27 26 28 28 28 29 29 26 27 27 26 25 26 28 29 31 33 34 34 36 36 37 37 36 36 35 34 34 36 39 42 42 41 40 39 39 39 38 37 37 37 37 37 37 37 37 37 36 35 35
16 17 18 19 20 20 20 20 21 22 23 23 24 24 24 23 23 23 23 24 25 25 24 25 26 24 24 26 25 25 25 24 25 27 27 26 27 27 27 29 32 32 32 33 34 35 35 36 37 36 34 34 34 36 39 41 40 38 38 38 38 37 37 37 37 36 36 37 37 36 36 35 34 34
16 17 18 19 19 19 19 20 21 22 23 24 24 25 25 24 23 23 24 24 24 23 22 24 25 21 21 25 26 24 26 27 28 28 27 25 26 25 23 24 29 31 31 31 31 33 34 34 35 36 36 36 35 35 38 39 38 37 37 38 39 38 38 37 37 37 36 36 36 35 34 34 34 33
17 17 18 19 19 19 20 22 23 23 24 24 24 25 25 23 21 22 24 24 23 22 22 24 25 22 22 27 30 27 27 28 27 27 28 26 25 22 17 15 20 27 31 30 29 30 32 32 33 35 36 37 37 37 37 37 36 36 36 37 38 38 38 37 36 35 35 34 34 34 33 33 33 32
18 17 18 18 19 20 22 24 25 24 24 24 24 24 24 23 22 24 25 25 24 23 23 25 27 26 25 28 31 30 28 28 28 28 28 27 25 22 19 16 17 23 28 29 27 27 29 29 30 33 35 36 38 38 37 36 35 35 35 36 37 37 36 35 34 33 33 33 33 33 33 32 32 32
19 18 18 18 18 21 23 24 24 23 23 23 22 22 23 24 26 27 26 26 26 26 26 26 28 31 31 30 33 35 32 30 29 27 26 28 26 24 24 24 24 23 24 26 25 24 27 28 28 31 33 34 35 36 36 36 35 35 35 35 35 35 34 33 33 33 33 32 33 33 32 32 32 32
22 20 18 19 20 22 22 21 21 21 21 21 22 23 24 26 28 27 26 27 28 29 29 29 32 37 38 37 40 42 39 35 32 30 28 28 27 26 27 29 31 28 25 26 23 19 24 28 27 30 34 32 33 34 35 36 36 35 34 34 34 34 34 33 33 33 33 32 33 32 32 32 32 32
22 20 19 20 21 22 21 19 19 19 19 20 22 24 26 28 28 26 25 27 29 30 33 36 39 43 44 44 45 45 42 38 36 35 35 34 31 30 29 28 30 29 28 29 23 14 19 26 26 29 33 31 31 33 33 33 34 34 33 34 35 34 33 34 34 34 34 33 32 32 32 33 33 33
20 20 20 20 20 20 19 18 17 17 18 20 22 25 27 27 28 27 27 28 30 32 38 43 45 46 47 47 47 47 45 42 39 36 34 35 33 29 24 21 23 25 25 29 27 17 17 24 26 27 30 29 29 32 32 32 33 34 34 34 35 35 34 34 35 34 34 34 33 33 33 33 33 33
19 20 21 20 20 19 17 16 16 16 17 19 22 24 25 25 27 28 29 31 34 37 42 45 45 46 47 47 48 47 44 43 41 36 31 29 28 22 15 12 16 20 21 26 28 22 18 22 25 25 24 26 28 29 30 33 33 33 34 34 34 35 35 35 36 35 35 35 34 34 34 33 34 33
18 19 19 19 18 16 16 16 16 16 17 19 20 20 21 22 25 27 30 33 37 40 42 44 46 47 47 48 47 43 38 35 36 38 37 32 26 19 13 10 13 17 20 25 26 22 20 23 24 21 17 18 25 29 29 31 33 32 33 33 33 34 34 34 34 35 35 36 35 35 34 34 33 31
16 18 18 17 15 14 14 15 15 16 16 16 15 16 18 20 23 26 30 31 34 38 41 44 48 49 48 48 45 40 34 27 27 36 42 39 29 22 19 15 12 10 13 23 27 22 19 23 24 19 11 7 15 26 29 29 32 33 33 33 32 33 33 32 32 33 34 35 35 34 33 32 30 28
17 18 16 15 14 14 14 14 15 15 13 12 14 16 16 18 22 26 27 27 29 34 38 42 46 46 46 46 42 38 33 23 21 30 39 42 35 27 24 21 16 11 11 20 28 25 20 22 22 21 18 9 6 15 24 28 30 31 32 34 34 33 33 32 32 32 33 33 33 32 31 30 28 28
17 17 15 14 14 14 14 16 15 12 9 10 15 17 17 18 19 21 21 23 28 33 35 39 43 43 43 43 41 39 37 26 18 25 31 38 39 33 28 24 19 18 18 19 25 28 23 20 21 20 20 16 9 9 16 23 27 31 32 33 34 34 34 34 33 34 34 33 32 30 29 29 28 28
16 16 15 13 13 14 15 15 13 9 8 11 15 18 18 18 18 17 18 21 28 32 34 36 39 41 41 42 41 40 43 36 19 23 27 32 37 36 34 29 21 21 24 21 23 29 26 21 22 20 17 16 14 10 10 14 20 27 30 31 33 34 34 34 34 35 35 34 33 31 30 28 27 25
14 13 13 12 13 15 14 12 9 7 8 12 16 18 19 18 18 18 19 22 26 30 33 33 35 38 40 41 41 41 44 42 21 20 27 28 34 37 38 35 27 25 28 24 23 29 28 23 23 22 18 14 10 8 7 7 12 20 25 28 31 32 32 32 33 34 34 34 33 30 28 25 24 24
11 11 11 12 13 13 10 8 7 6 8 13 17 19 21 21 21 21 22 24 25 27 30 31 32 36 39 41 42 42 42 40 23 8 22 26 30 35 37 35 29 26 27 25 23 27 29 25 22 22 20 15 10 8 6 4 8 18 22 22 24 27 29 30 31 33 33 33 31 29 27 25 25 26
10 11 11 10 9 8 6 7 7 8 10 14 16 19 23 24 23 23 24 24 24 24 27 29 31 34 38 41 43 41 39 38 35 19 4 18 26 30 33 32 29 27 26 25 24 24 26 26 24 23 22 19 15 15 14 9 9 16 21 21 20 24 27 28 29 31 31 30 30 29 28 27 27 27
9 9 8 7 7 7 7 8 8 8 10 13 15 18 23 25 25 25 24 23 22 22 24 28 31 34 38 42 43 42 39 40 42 37 20 1 16 26 29 27 26 26 24 23 22 22 22 25 25 23 22 19 17 19 21 17 12 14 20 24 21 19 23 27 27 28 29 29 29 29 28 26 26 28
9 9 8 7 7 7 8 9 8 8 10 14 16 18 21 23 25 25 23 21 20 21 24 27 31 35 37 41 43 42 40 40 41 41 35 21 6 11 23 26 24 24 24 23 22 22 22 24 24 22 20 20 20 21 22 21 17 14 19 25 23 18 21 26 27 27 28 28 27 26 26 25 26 28
10 10 8 7 8 9 11 12 12 13 15 16 18 20 20 22 24 25 25 25 24 25 27 27 29 34 36 37 39 39 37 37 40 40 38 33 26 12 4 13 14 17 21 23 23 23 22 22 22 22 21 21 21 19 17 19 21 20 19 23 25 22 20 25 29 27 26 26 25 24 25 26 28 29
9 9 8 9 10 10 12 14 15 16 18 17 19 21 20 22 25 26 27 29 27 27 28 27 28 31 34 35 36 36 35 35 38 38 36 34 32 27 18 11 8 4 10 17 20 22 23 23 21 21 20 18 17 18 18 17 20 24 23 23 25 22 19 23 28 28 26 26 25 24 24 26 28 29
8 8 8 10 11 10 11 14 15 16 17 18 20 21 20 21 25 26 26 28 27 26 27 27 27 28 31 33 34 33 33 35 36 36 34 32 30 28 24 20 18 14 6 2 5 13 20 22 19 17 17 17 14 14 17 17 19 24 26 25 26 25 23 24 26 28 29 28 25 23 23 24 26 27
8 9 9 9 10 9 10 12 13 14 15 16 18 20 20 21 24 26 26 26 27 26 27 28 29 29 30 31 32 32 33 34 33 33 33 31 29 29 24 20 20 20 17 16 12 3 11 20 23 20 16 14 11 7 8 10 12 16 21 23 25 27 26 26 27 29 29 28 26 23 21 21 24 26
8 9 9 9 10 9 9 11 12 13 15 16 17 19 20 20 22 24 24 24 25 25 26 28 29 29 29 30 31 33 34 33 32 31 31 29 28 29 27 25 24 23 22 22 21 14 3 13 23 21 12 7 5 4 4 3 2 6 13 19 24 27 28 28 28 29 30 29 27 25 21 20 22 25
10 10 10 11 11 10 10 10 11 13 15 16 17 18 19 19 20 21 21 23 24 25 26 27 27 28 29 30 31 32 33 33 31 30 31 30 28 27 26 26 27 26 24 25 25 21 17 13 10 10 9 7 6 5 4 3 5 4 5 14 21 25 27 27 26 27 29 30 28 27 25 22 22 24
11 10 10 11 11 11 11 12 12 14 16 16 18 19 19 19 20 20 21 23 24 24 26 27 28 28 29 29 30 29 29 31 30 30 30 30 28 25 23 23 25 26 25 26 28 25 23 25 24 15 5 5 5 3 3 4 8 12 8 6 16 21 23 25 24 23 25 27 28 27 26 23 22 24
11 10 10 10 10 10 12 13 14 15 16 16 18 19 19 19 20 21 22 23 24 23 25 27 28 28 28 29 29 27 26 27 27 27 28 28 27 26 24 22 22 24 24 25 29 30 28 28 28 24 17 11 9 10 11 10 11 19 21 9 5 12 16 19 21 21 22 25 25 23 22 21 20 21
10 10 10 9 10 10 11 12 13 14 14 15 17 18 18 18 19 20 21 22 23 23 24 26 27 28 28 28 29 27 25 25 26 26 26 27 26 26 26 23 21 21 20 21 24 27 29 29 27 25 22 18 17 18 20 17 17 25 31 27 15 6 10 14 17 18 20 22 23 21 18 18 18 18
7 9 9 9 9 10 11 12 13 13 14 15 16 16 16 17 17 18 19 21 22 22 23 24 27 28 27 27 29 28 25 25 26 27 27 27 26 26 27 25 23 21 19 17 19 23 26 27 26 26 24 22 20 19 16 13 13 18 26 31 30 23 14 8 7 7 8 14 21 22 19 19 20 20
7 7 8 9 10 10 11 12 13 13 14 14 15 15 16 16 16 16 18 20 21 22 23 23 24 26 27 27 28 27 25 25 26 27 27 27 26 27 27 25 22 21 20 18 18 20 23 24 25 26 27 28 26 19 12 8 9 12 17 24 30 32 31 27 22 18 14 9 7 8 11 16 16 14
7 7 8 8 10 11 12 12 12 13 13 13 13 14 15 17 17 16 17 19 20 21 23 23 23 24 25 26 27 27 25 24 24 25 26 26 25 25 25 24 23 22 22 22 21 20 19 20 22 24 26 28 27 20 14 12 13 13 14 19 25 28 31 34 34 33 30 28 26 21 9 7 12 13
7 7 7 7 9 11 12 12 12 12 12 12 11 12 14 17 17 16 16 17 19 21 22 23 23 23 23 25 26 26 25 24 23 23 24 25 25 23 23 25 25 24 23 23 23 21 19 18 18 20 21 23 24 22 18 16 15 14 15 19 23 24 26 30 33 33 33 34 34 32 27 19 12 16
7 7 6 6 8 10 10 11 11 11 12 12 11 11 13 16 17 16 16 16 19 20 21 22 23 22 22 24 25 24 24 23 22 22 23 24 25 24 24 24 25 25 24 24 22 21 20 19 17 17 18 19 21 22 20 18 16 16 17 20 21 21 23 26 28 27 28 31 31 30 31 32 28 23
Wind_Direction
316 315 318 319 321 327 332 336 339 340 338 337 335 331 324 317 311 310 311 307 303 305 305 300 297 297 293 289 286 281 278 277 276 274 270 265 261 257 256 252 245 241 241 241 239 239 239 238 239 241 242 242 243 244 244 245 246 246 247 247 248 248 248 248 248 249 250 253 254 254 255 257 257 258
307 302 304 308 311 314 322 332 337 340 343 343 339 335 330 323 313 305 308 304 303 308 309 305 301 300 297 291 287 283 279 278 276 271 267 264 263 260 257 253 247 241 241 242 242 242 240 238 240 242 242 241 242 244 244 245 246 246 247 248 249 249 249 248 248 249 250 252 254 255 257 259 259 260
289 288 293 295 296 303 314 325 332 339 345 345 341 337 334 330 322 311 304 300 304 310 310 307 305 303 298 293 289 282 277 275 274 270 267 266 265 263 259 257 252 246 244 245 246 244 241 240 242 243 243 242 241 242 244 246 246 247 248 248 249 249 250 250 249 249 250 252 253 255 257 259 261 261
275 280 287 287 292 300 305 313 325 337 342 340 338 337 334 334 329 315 302 294 300 306 307 307 307 306 302 296 290 283 277 273 269 267 266 266 265 262 259 258 256 251 249 248 246 244 242 242 244 244 244 243 241 240 242 244 246 248 248 249 249 250 250 250 250 250 250 251 252 255 257 260 261 262
270 281 284 280 291 299 291 297 315 328 334 334 332 335 336 333 329 316 302 293 297 304 309 309 308 308 305 296 290 284 278 272 268 265 263 263 262 259 258 258 257 254 251 250 247 245 244 244 245 246 245 244 243 240 240 242 245 248 249 249 249 250 250 250 250 251 251 251 252 254 257 259 261 263
272 277 277 278 289 291 280 285 303 316 320 321 322 330 335 326 322 317 303 294 293 301 309 312 310 309 306 298 291 286 279 273 269 265 262 260 258 258 257 256 256 256 255 254 250 248 247 245 245 246 245 245 244 241 240 241 243 247 250 250 250 251 251 251 251 251 251 252 252 254 256 258 261 262
274 271 269 274 281 276 269 275 290 305 306 304 309 319 326 318 314 316 308 297 293 297 305 310 309 307 306 300 294 287 281 275 269 265 262 258 255 256 255 254 255 257 258 257 254 252 249 247 246 245 246 247 245 241 240 241 243 246 249 250 251 251 251 251 250 250 251 251 252 253 255 257 259 260
274 273 269 269 274 270 264 267 279 292 292 293 299 307 313 311 309 312 309 301 296 297 301 306 307 305 303 300 296 289 282 278 270 262 259 257 254 254 254 253 254 256 258 259 257 254 251 249 247 246 246 247 245 241 240 240 241 244 247 250 251 251 251 251 250 250 250 250 251 252 253 255 256 257
273 274 272 271 271 267 262 262 270 281 285 288 293 299 304 307 306 307 306 303 302 299 298 302 305 304 301 299 297 292 285 280 272 262 257 255 254 254 254 253 253 254 256 257 256 254 252 251 250 248 247 246 244 241 240 240 241 243 245 249 251 251 251 251 250 249 249 249 249 250 251 253 254 254
276 275 276 277 273 265 262 261 263 271 280 284 289 295 302 305 304 302 301 304 306 304 300 301 303 303 301 299 298 296 292 283 274 264 258 255 252 251 252 250 250 251 251 252 253 251 250 252 250 247 246 245 242 241 240 241 242 242 244 249 251 251 251 251 250 248 248 247 247 248 250 251 252 253
282 281 282 282 276 269 266 263 261 267 274 281 289 296 301 304 302 299 300 305 308 306 303 302 301 300 300 299 297 298 298 290 277 267 260 257 253 250 248 246 246 247 247 248 249 250 251 254 250 245 244 244 242 239 239 240 241 242 244 248 250 249 250 250 248 247 246 246 246 247 249 250 251 252
289 288 289 287 280 274 271 267 265 269 272 278 289 296 300 301 298 297 300 305 308 307 303 301 302 301 299 297 297 299 300 295 281 267 256 254 254 251 249 246 245 243 242 243 245 246 248 249 246 242 242 244 242 239 238 239 240 242 244 246 247 247 248 248 247 246 245 245 246 247 247 249 250 251
297 296 297 296 289 281 275 273 273 275 276 279 286 294 298 298 296 297 300 303 305 306 303 302 303 302 299 296 297 298 297 294 289 279 264 254 253 253 251 249 246 242 240 241 242 241 241 241 240 239 241 243 241 239 238 238 240 241 242 243 244 245 245 246 246 246 246 246 246 247 246 247 248 250
295 299 300 303 301 293 284 282 281 280 280 281 285 292 295 293 292 295 298 300 303 304 302 303 304 303 300 297 294 291 290 290 292 291 280 263 255 254 252 251 248 242 237 235 237 239 238 236 236 238 241 242 240 238 238 237 237 239 240 241 242 242 242 243 245 245 245 245 245 244 245 245 246 249
288 292 297 303 305 298 291 289 287 284 282 282 285 290 292 289 289 295 295 294 299 303 301 301 302 299 296 296 293 289 287 287 286 287 284 272 257 250 248 248 247 240 232 227 230 236 235 231 232 236 240 240 238 237 237 237 238 238 240 240 239 239 240 241 242 242 241 242 241 241 242 243 245 247
282 285 293 302 302 298 297 294 292 292 292 291 289 289 291 289 290 297 298 294 297 302 299 297 298 296 294 294 292 287 285 284 282 280 280 275 263 251 245 242 241 239 231 222 225 234 234 229 229 233 237 238 238 239 239 239 240 240 239 239 238 237 238 239 238 238 238 237 237 238 240 242 244 246
279 280 290 298 299 305 308 303 299 300 302 302 297 290 290 290 292 301 305 303 303 304 299 294 294 295 295 291 289 286 282 279 276 274 273 273 268 256 247 243 242 240 231 219 219 232 234 227 226 230 234 236 238 240 241 241 242 242 240 238 237 236 237 237 236 235 235 235 236 238 240 242 244 246
277 279 287 291 297 310 316 312 309 309 309 308 304 297 294 293 296 303 308 309 309 307 305 302 298 298 297 293 289 286 279 272 268 265 264 266 267 263 255 248 244 242 234 221 217 228 234 226 223 229 232 232 234 237 240 242 242 242 240 237 236 236 235 235 234 233 233 234 235 238 240 242 245 248
277 279 284 286 296 311 316 314 314 315 314 310 304 300 297 296 300 303 306 310 310 307 309 309 305 303 301 296 292 287 278 268 261 258 257 258 262 267 265 256 247 242 235 224 214 221 235 226 220 228 232 230 231 233 236 240 241 241 240 236 235 236 236 236 235 234 234 234 236 238 241 244 247 251
279 279 281 283 296 310 312 313 315 313 310 308 302 298 297 299 301 300 302 308 310 310 314 314 311 309 307 302 297 290 282 270 258 253 254 253 253 257 258 254 247 241 232 222 212 214 236 230 220 227 231 228 230 231 231 234 238 239 238 236 235 236 237 238 238 237 236 236 237 239 243 246 250 255
281 280 279 284 298 305 307 313 316 309 306 306 302 301 302 304 303 303 305 310 313 318 320 319 317 316 313 309 303 296 289 277 260 247 243 242 239 241 243 241 241 236 227 221 214 211 228 231 223 225 229 227 228 230 229 230 234 236 237 237 236 237 238 240 240 239 239 239 239 241 244 249 253 255
285 282 283 291 299 300 305 314 312 307 309 309 307 310 313 310 307 308 313 316 321 324 325 325 326 325 322 320 314 305 297 284 259 239 232 230 228 231 237 231 228 230 226 221 214 210 220 227 222 218 223 228 230 229 229 229 230 232 235 236 238 239 240 241 242 242 241 241 242 243 246 249 250 250
292 289 293 299 299 299 307 311 306 309 315 315 319 327 323 313 310 313 318 323 326 326 328 332 332 329 327 327 324 317 311 294 258 236 229 225 222 225 233 230 221 223 225 218 212 208 216 221 216 207 201 222 235 231 230 230 229 230 232 233 235 237 237 239 241 242 242 241 241 243 245 245 244 246
299 300 304 305 301 302 309 309 309 316 319 319 329 336 329 316 313 317 323 332 334 330 331 334 332 328 327 329 328 329 328 308 261 237 228 221 217 219 226 230 222 214 217 212 207 206 212 216 213 206 203 209 233 227 226 227 228 229 230 230 231 232 233 234 237 239 239 239 240 241 241 240 242 247
307 310 311 307 302 305 312 314 317 319 316 321 335 341 335 325 322 325 332 341 344 339 337 336 332 329 330 332 333 338 340 326 272 238 227 219 215 214 217 223 222 216 216 212 207 206 207 207 206 202 203 212 226 222 219 223 224 225 227 228 230 231 231 232 233 235 236 237 236 235 234 238 244 248
315 315 313 308 303 307 314 320 322 315 310 326 340 345 342 339 340 342 342 345 348 344 340 337 334 332 333 335 338 342 345 339 298 238 226 219 214 213 216 219 220 217 215 212 209 207 205 202 203 198 195 208 222 216 203 211 220 223 224 226 228 230 231 231 231 233 233 232 231 230 233 240 244 240
322 323 321 313 307 308 316 324 325 313 313 332 345 350 353 354 356 358 355 352 348 344 340 338 336 335 336 338 342 344 344 343 322 239 226 221 214 213 217 221 228 227 220 215 211 209 207 204 203 200 195 201 216 218 201 197 210 214 216 221 225 227 229 230 230 230 228 226 225 227 232 236 234 226
333 333 325 316 316 321 327 333 336 331 333 342 350 358 4 6 5 6 3 356 348 343 341 338 336 338 339 339 343 343 342 347 352 255 225 223 215 210 211 217 229 230 222 217 212 211 212 211 205 201 200 199 201 215 229 237 211 205 207 213 221 225 226 226 225 225 224 223 223 225 228 228 224 219
333 326 318 320 337 355 2 2 6 1 351 349 351 1 10 12 10 8 3 356 350 344 341 339 337 340 341 340 343 344 346 357 12 17 247 214 208 205 205 214 226 226 219 217 215 214 217 218 214 212 213 209 203 203 211 225 226 209 200 199 209 220 223 222 221 221 221 221 222 224 228 230 226 219
335 332 340 1 26 37 22 10 11 6 355 354 356 4 11 12 11 9 3 355 350 343 340 343 342 341 343 345 346 349 356 5 13 16 18 153 195 196 200 213 227 226 219 219 219 220 221 220 218 216 213 213 217 215 211 214 223 216 204 199 198 208 217 218 218 219 220 221 223 226 229 232 228 219
3 14 29 36 40 32 11 8 15 12 5 6 8 10 12 10 9 9 5 357 353 348 346 349 349 346 348 351 351 352 360 7 12 15 20 25 34 197 202 211 223 225 223 224 224 224 223 220 216 212 204 201 209 217 213 210 212 214 209 204 197 197 208 210 211 215 217 217 219 221 223 223 222 219
24 41 42 27 23 21 12 14 22 17 11 11 12 13 13 8 7 9 9 6 5 1 356 354 354 352 352 354 354 354 358 6 11 15 20 24 25 26 196 209 223 227 223 222 222 222 223 221 216 215 210 200 199 206 205 202 209 217 218 211 205 205 208 204 203 207 211 209 209 212 214 216 216 216
36 45 40 30 33 32 19 16 17 12 7 6 6 9 12 9 8 10 10 7 6 4 360 357 355 354 353 353 355 356 359 4 10 14 18 23 26 29 35 31 359 290 211 208 212 210 209 212 210 209 207 201 202 210 205 197 206 216 218 214 208 205 206 204 201 202 202 199 199 203 207 213 216 216
42 40 44 44 42 35 23 19 17 13 9 5 2 5 10 11 10 11 10 6 4 3 2 360 358 357 356 355 355 357 0 3 7 12 16 21 25 28 31 28 16 13 34 125 195 192 194 197 192 182 179 176 179 200 206 204 210 215 216 216 212 208 207 205 202 202 202 200 197 196 200 209 213 215
51 44 48 48 40 35 30 23 19 18 16 11 6 5 8 10 10 10 8 6 5 4 2 2 3 2 360 358 357 359 2 3 5 9 13 19 24 26 26 26 19 14 21 31 35 69 190 188 173 156 150 152 148 150 184 205 221 223 219 218 216 213 211 206 201 200 200 199 197 193 194 202 207 210
58 49 47 43 37 35 30 23 21 24 24 19 13 8 6 6 7 8 7 7 8 7 4 3 3 3 2 1 1 3 5 4 4 6 8 14 21 23 23 24 21 15 16 24 30 31 64 175 171 164 153 145 148 144 143 156 230 240 231 227 222 216 211 207 202 199 197 196 195 195 195 198 203 208
64 57 52 48 43 38 32 25 23 25 23 20 16 11 6 4 4 6 9 12 14 12 8 6 4 4 5 4 4 6 8 7 5 4 6 10 15 18 20 20 18 15 15 20 25 30 39 59 105 150 166 168 171 167 139 83 39 11 265 241 228 215 206 201 198 196 196 196 196 199 200 200 203 209
68 61 54 49 44 39 33 27 23 22 21 18 14 11 7 5 5 7 12 16 17 15 11 9 7 7 8 8 6 5 7 8 7 5 6 9 12 13 14 15 15 14 16 21 24 27 35 44 46 49 78 153 173 162 127 80 35 29 20 255 226 211 200 195 194 194 196 197 198 202 205 205 210 214
60 54 48 40 33 28 25 23 21 18 16 16 15 13 10 7 8 10 14 18 19 17 14 12 9 8 9 9 7 7 8 10 10 6 5 8 11 10 9 11 14 14 16 21 24 24 28 37 39 37 44 68 86 83 89 95 65 47 48 54 209 208 200 197 196 195 196 196 195 196 199 203 210 213
57 51 43 34 29 28 26 25 23 19 17 17 17 15 14 13 12 13 16 18 20 19 17 14 12 10 9 9 8 9 10 12 13 10 6 8 12 12 11 11 12 12 15 22 27 26 25 29 35 40 49 71 88 84 79 79 67 54 54 57 65 120 190 204 203 198 199 197 189 181 183 188 189 190
60 53 44 35 33 35 35 31 26 24 22 20 17 15 18 19 18 16 16 19 21 20 18 16 14 11 10 9 9 9 9 11 13 13 10 10 10 12 15 16 12 8 11 19 28 31 28 29 39 51 59 69 79 78 69 60 52 52 55 58 63 74 97 134 164 174 191 195 188 182 179 175 170 171
63 52 43 39 36 39 40 34 29 26 22 18 16 16 17 20 22 20 18 20 22 20 17 16 14 12 10 10 10 10 10 10 12 12 12 11 10 10 13 14 10 8 10 14 22 33 36 35 39 50 56 58 61 65 64 51 41 46 55 60 62 66 71 76 80 80 77 90 126 161 181 178 166 160
60 47 44 43 39 39 39 35 31 29 23 17 16 16 15 18 22 23 21 21 22 20 17 15 14 13 12 11 11 12 13 12 12 12 12 12 11 9 8 8 9 12 16 17 21 33 42 41 39 44 50 52 53 56 59 56 45 40 50 60 62 63 66 69 73 75 75 73 65 54 58 165 178 173
59 48 46 42 35 35 38 37 35 31 24 19 17 17 16 18 23 27 28 27 25 22 19 16 15 14 14 14 14 15 16 15 14 13 13 13 13 11 9 9 11 15 19 20 21 28 37 44 45 46 49 53 55 55 57 56 50 44 48 58 61 62 63 65 67 68 69 71 69 61 56 67 110 154
64 52 48 42 33 31 34 35 33 28 22 20 22 23 22 23 27 33 35 34 30 27 22 18 17 17 17 16 16 16 17 18 17 16 15 14 13 13 12 12 12 14 17 19 19 22 29 39 46 48 50 54 57 58 59 60 57 51 50 53 55 57 60 65 66 63 61 64 69 69 65 64 74 93